Weather History for Marathon, FL

Change the Weather History Date:

Thursday, April 4, 2013

  Actual Average Record
Temperature  
Mean Temperature 83 °F 76 °F  
Max Temperature 87 °F 82 °F 89 °F (1998)
Min Temperature 78 °F 71 °F 57 °F (2005)
Degree Days  
Heating Degree Days 0 0  
Month to date heating degree days 0 0  
Since 1 July heating degree days 36 81  
Cooling Degree Days 18 11  
Month to date cooling degree days 63 44  
Year to date cooling degree days 851 709  
Growing Degree Days 32 (Base 50)    
Moisture  
Dew Point 71 °F    
Average Humidity 67    
Maximum Humidity 74    
Minimum Humidity 59    
Precipitation  
Precipitation 0.00 in 0.08 in 0.05 in (2008)
Month to date precipitation 0.00 0.30  
Year to date precipitation 3.77 6.51  
Snow  
Snow 0.00 in - - ()
Month to date snowfall 0.0  
Since 1 July snowfall 0.0  
Snow Depth 0.00 in    
Sea Level Pressure  
Sea Level Pressure 29.99 in    
Wind  
Wind Speed 7 mph (SE)    
Max Wind Speed 12 mph    
Max Gust Speed 17 mph    
Visibility 10 miles    
Events      
T = Trace of Precipitation, MM = Missing Value Source: NWS Daily Summary

Daily Weather History Graph

Daily Weather History Graph

Search for Another Location

Airport:

Trip Planner

Search our weather history database for the weather conditions in past years. The results will help you decide how hot, cold, wet, or windy it might be!

Date:

Astronomy

Apr. 04, 2013 Rise Set
Actual Time 7:12 AM EDT 7:41 PM EDT
Civil Twilight 6:49 AM EDT 8:04 PM EDT
Nautical Twilight 6:22 AM EDT 8:31 PM EDT
Astronomical Twilight 5:55 AM EDT 8:59 PM EDT
Moon 3:03 AM EDT (4/4) 2:31 PM EDT (4/4)
Length of Visible Light 13h 15m
Length of Day
12h 29m
Waning Crescent, 34% of the Moon is Illuminated
Apr 4
Waning Crescent
Apr 10
New
Apr 18
First Quarter
Apr 25
Full
May 2
Last Quarter

Hourly Weather History & Observations

Time (EDT) Temp. Heat Index Dew Point Humidity Pressure Visibility Wind Dir Wind Speed Gust Speed Precip Events Conditions
12:53 AM 79.0 °F - 69.1 °F 72% 30.04 in 10.0 mi ESE 8.1 mph - N/A   Mostly Cloudy
1:53 AM 78.1 °F - 69.1 °F 74% 30.03 in 10.0 mi SE 9.2 mph - N/A   Scattered Clouds
2:53 AM 78.1 °F - 69.1 °F 74% 30.01 in 10.0 mi SE 9.2 mph - N/A   Partly Cloudy
3:53 AM 78.1 °F - 69.1 °F 74% 29.99 in 10.0 mi SE 9.2 mph - N/A   Clear
4:53 AM 78.1 °F - 69.1 °F 74% 29.98 in 10.0 mi SE 9.2 mph - N/A   Clear
5:53 AM 78.1 °F - 69.1 °F 74% 29.99 in 10.0 mi SE 4.6 mph - N/A   Clear
6:53 AM 78.1 °F - 69.1 °F 74% 30.00 in 10.0 mi Variable 6.9 mph - N/A   Clear
7:53 AM 79.0 °F - 69.1 °F 72% 30.01 in 10.0 mi SE 8.1 mph - N/A   Clear
8:53 AM 80.1 °F 83.2 °F 70.0 °F 71% 30.01 in 10.0 mi SE 10.4 mph - N/A   Clear
9:53 AM 82.0 °F 86.3 °F 71.1 °F 69% 30.01 in 10.0 mi SE 9.2 mph - N/A   Clear
10:53 AM 84.9 °F 90.1 °F 71.1 °F 63% 30.00 in 10.0 mi Variable 5.8 mph - N/A   Clear
11:26 AM 84.2 °F 89.6 °F 71.6 °F 66% 30.00 in 10.0 mi SE 6.9 mph - N/A   Mostly Cloudy
11:53 AM 84.9 °F 90.7 °F 72.0 °F 65% 30.01 in 10.0 mi Variable 5.8 mph - N/A   Scattered Clouds
12:40 PM 84.2 °F 89.6 °F 71.6 °F 66% 30.01 in 10.0 mi SE 5.8 mph - N/A   Mostly Cloudy
12:51 PM 84.2 °F 89.6 °F 71.6 °F 66% 30.00 in 10.0 mi Variable 6.9 mph - N/A   Scattered Clouds
12:53 PM 84.9 °F 90.7 °F 72.0 °F 65% 30.00 in 10.0 mi SSE 8.1 mph - N/A   Scattered Clouds
1:53 PM 87.1 °F 93.6 °F 72.0 °F 61% 29.99 in 10.0 mi SSE 10.4 mph - N/A   Clear
2:53 PM 87.1 °F 93.6 °F 72.0 °F 61% 29.98 in 10.0 mi SSE 8.1 mph - N/A   Clear
3:53 PM 87.1 °F 93.6 °F 72.0 °F 61% 29.97 in 10.0 mi Variable 4.6 mph - N/A   Clear
4:53 PM 84.0 °F 89.0 °F 71.1 °F 65% 29.96 in 10.0 mi SSE 5.8 mph - N/A   Clear
5:53 PM 84.0 °F 89.0 °F 71.1 °F 65% 29.96 in 10.0 mi SSE 5.8 mph - N/A   Clear
6:53 PM 82.0 °F 86.3 °F 71.1 °F 69% 29.96 in 10.0 mi SE 3.5 mph - N/A   Clear
7:53 PM 81.0 °F 84.9 °F 71.1 °F 72% 29.96 in 10.0 mi ESE 4.6 mph - N/A   Mostly Cloudy
8:53 PM 80.1 °F 83.8 °F 72.0 °F 76% 29.93 in 10.0 mi ESE 4.6 mph - N/A   Clear
9:53 PM 80.1 °F 83.8 °F 72.0 °F 76% 29.94 in 10.0 mi SE 6.9 mph - N/A   Clear
10:53 PM 80.1 °F 83.2 °F 70.0 °F 71% 29.97 in 10.0 mi SE 4.6 mph - N/A   Scattered Clouds
11:53 PM 80.1 °F 83.6 °F 71.1 °F 74% 29.98 in 10.0 mi SSE 8.1 mph - N/A   Overcast